This is the latest recevied weather packets stored in our database for station/object KG2V. If no packets are shown the sender has not sent any weather packets the latest 10 day(s).
| Time | Temp. | Humidity | Pressure | Rain* | Wind** | Luminosity | Snow |
|---|---|---|---|---|---|---|---|
| 1777837049 | 13.33° C | 43% | 1006 hPa | 0 mm | - | 410 W/m² | - |
| 1777836745 | 13.33° C | 42% | 1005.9 hPa | 0 mm | - | 423 W/m² | - |
| 1777836441 | 13.89° C | 42% | 1006 hPa | 0 mm | - | 305 W/m² | - |
| 1777836136 | 13.33° C | 43% | 1006.4 hPa | 0 mm | - | 273 W/m² | - |
| 1777835833 | 13.33° C | 40% | 1006.3 hPa | 0 mm | - | 451 W/m² | - |
| 1777835530 | 13.89° C | 42% | 1006.3 hPa | 0 mm | - | 495 W/m² | - |
| 1777835227 | 13.89° C | 41% | 1006.4 hPa | 0 mm | - | 427 W/m² | - |
| 1777834924 | 13.33° C | 43% | 1006.5 hPa | 0 mm | - | 478 W/m² | - |
| 1777834621 | 13.33° C | 42% | 1006.5 hPa | 0 mm | - | 577 W/m² | - |
| 1777834316 | 13.33° C | 43% | 1006.8 hPa | 0 mm | - | 570 W/m² | - |
| 1777834011 | 12.78° C | 45% | 1006.6 hPa | 0 mm | - | 463 W/m² | - |
| 1777833708 | 12.78° C | 42% | 1006.9 hPa | 0 mm | - | 536 W/m² | - |
| 1777833404 | 12.22° C | 44% | 1007.2 hPa | 0 mm | - | 619 W/m² | - |
| 1777833102 | 11.67° C | 42% | 1007.1 hPa | 0 mm | - | 283 W/m² | - |
| 1777832800 | 12.78° C | 43% | 1007.1 hPa | 0 mm | - | 249 W/m² | - |
| 1777832498 | 13.33° C | 42% | 1007.2 hPa | 0 mm | - | 305 W/m² | - |
| 1777832194 | 12.78° C | 44% | 1007.2 hPa | 0 mm | - | 696 W/m² | - |
| 1777831891 | 12.22° C | 44% | 1007.2 hPa | 0 mm | - | 775 W/m² | - |
| 1777831588 | 13.89° C | 43% | 1007.5 hPa | 0 mm | - | 244 W/m² | - |
| 1777831286 | 12.78° C | 44% | 1007.5 hPa | 0 mm | - | 686 W/m² | - |
| 1777830983 | 12.78° C | 41% | 1007.4 hPa | 0 mm | - | 716 W/m² | - |
| 1777830680 | 12.22° C | 45% | 1007.6 hPa | 0 mm | - | 446 W/m² | - |
| 1777830376 | 12.22° C | 44% | 1007.7 hPa | 0 mm | - | 381 W/m² | - |
| 1777830074 | 12.78° C | 44% | 1007.4 hPa | 0 mm | - | 355 W/m² | - |
| 1777829769 | 12.78° C | 46% | 1007.4 hPa | 0 mm | - | 442 W/m² | - |
* Rain latest hour (hover to see other rain measurements)
** Current wind speed in m/s (hover to see current wind gust speed)